Location: East Arcadia
(34.1056°N, 118.0176°W)
Time: 02:15:59
(UTC+00:00)

GEOS 3 Rocket - Pass Details

Date: 01 April 2023
Orbit: 770 x 848 km, 115.0° (Epoch: 08 June)

Event Time Altitude Azimuth Distance (km) Brightness Sun altitude
Rises 12:32:24 0° 137° (SE) 3,273 7.1 -14.5°
Reaches altitude 10° 12:34:40 10° 134° (SE) 2,357 6.4 -14.0°
Maximum altitude 12:39:43 64° 54° (NE) 895 4.1 -13.0°
Drops below altitude 10° 12:44:54 10° 334° (NNW) 2,419 6.0 -12.0°
Sets 12:47:15 0° 331° (NNW) 3,366 6.7 -11.5°
